Weather in Samur

Russia / Republic of Dagestan     41°49′35″N   48°29′06″E
temp.,
°C
wind,
m/s
gust,
m/s
humid.,
%
clouds,
%
prec.,
mm/h
press.,
hPa
HPBL,
m
26 february, fri
fri2600:00−3wsw226642 0.0 103023
03:00−1wnw225870 0.0 102821
06:00−1wsw225590 0.0 102830
09:00+5ssw353294 0.0 1027188
12:00+9se4432100 0.0 1026913
15:00+9sse353491 0.0 1025631
18:00+4s445976 0.0 102573
21:00+4ssw345187 0.0 102538
27 february, sat
sat2700:00+4ssw3344100 0.0 102427
03:00+3sw2246100 0.0 102322
06:00+3sw234957 0.0 102222
09:00+9w223632 0.0 1021150
12:00+11ne34460 0.0 1020702
15:00+10nne34560 0.0 1017541
18:00+6nw23750 0.0 101837
21:00+5wsw22740 0.0 101822
28 february, sun
sun2800:00+5ssw22660 0.0 101722
03:00+5sw33550 0.0 101627
06:00+5sw34510 0.0 101637
09:00+11w22410 0.0 1015221
12:00+12nne44450 0.0 1014486
15:00+9n55680 0.0 1013471
18:00+6nnw358827 0.0 1015238
21:00+6nnw238963 0.0 1017251
1 march, mon
mon100:00+5nne3495100 0.3 1018217
03:00+5n3497100 0.9 1018224
06:00+5nne4696100 1.2 1020326
09:00+5nne5796100 3.6 1022475
12:00+4n5792100 2.4 1023580
15:00+5n4682100 2.8 1024639
18:00+4nnw239098 0.1 1026336
21:00+4sw119198 0.1 1028124
2 march, tue
tue200:00+2e119489 0.0 102825
03:00+3s019185 0.0 102751
06:00+3s1194100 0.0 1029104
09:00+3s2295100 0.1 1029187
12:00+6se237199 0.1 1028801
15:00+5ese457699 0.3 1026627
18:00+3se358355 0.0 1026138
21:00+2sse358928 0.0 1026124